| time (UTC) | temp F | wind direction | speed knots | gust knots | rain 1hr in | rain 24hr in | rain mn in | humidity % | barometer mb |
| 20260507100022 | 48 | 140 | 0.0 | 0.0 | 0.00 | 0.00 | 0.00 | 50 | 1015.0 |
| 20260507094521 | 48 | 140 | 0.0 | 0.0 | 0.00 | 0.00 | 0.00 | 53 | 1014.9 |
| 20260507093020 | 48 | 304 | 0.0 | 0.0 | 0.00 | 0.00 | 0.00 | 53 | 1014.9 |
| 20260507091517 | 48 | 302 | 0.0 | 0.0 | 0.00 | 0.00 | 0.00 | 52 | 1014.9 |
| 20260507090015 | 49 | 302 | 0.0 | 0.0 | 0.00 | 0.00 | 0.00 | 51 | 1015.1 |
| 20260507084529 | 49 | 302 | 0.0 | 0.0 | 0.00 | 0.00 | 0.00 | 51 | 1015.1 |
| 20260507083012 | 49 | 302 | 0.0 | 0.0 | 0.00 | 0.00 | 0.00 | 51 | 1015.2 |
| 20260507081513 | 50 | 305 | 0.0 | 0.0 | 0.00 | 0.00 | 0.00 | 50 | 1015.3 |
| 20260507080007 | 51 | 305 | 0.0 | 0.0 | 0.00 | 0.00 | 0.00 | 49 | 1015.4 |
| 20260507074522 | 51 | 305 | 0.0 | 0.0 | 0.00 | 0.00 | 0.00 | 49 | 1015.3 |
| 20260507073005 | 51 | 305 | 0.0 | 0.0 | 0.00 | 0.00 | 0.00 | 48 | 1015.3 |
| 20260507071503 | 52 | 304 | 0.0 | 0.0 | 0.00 | 0.00 | 0.00 | 47 | 1015.3 |
| 20260507070108 | 52 | 304 | 0.0 | 0.0 | 0.00 | 0.00 | 0.00 | 47 | 1015.2 |
| 20260507064600 | 53 | 304 | 0.0 | 0.0 | 0.00 | 0.00 | 0.00 | 46 | 1015.1 |
| 20260507063100 | 53 | 300 | 0.0 | 0.0 | 0.00 | 0.00 | 0.00 | 46 | 1015.0 |
| 20260507061600 | 53 | 319 | 0.0 | 0.0 | 0.00 | 0.00 | 0.00 | 46 | 1014.9 |
| 20260507060107 | 53 | 323 | 0.0 | 0.0 | 0.00 | 0.00 | 0.00 | 45 | 1014.8 |
| 20260507054559 | 53 | 311 | 0.0 | 0.0 | 0.00 | 0.00 | 0.00 | 44 | 1014.8 |
| 20260507053057 | 54 | 309 | 0.0 | 0.0 | 0.00 | 0.00 | 0.00 | 44 | 1014.7 |
| 20260507051557 | 54 | 309 | 0.0 | 0.0 | 0.00 | 0.00 | 0.00 | 43 | 1014.6 |
| 20260507050059 | 55 | 309 | 0.0 | 0.0 | 0.00 | 0.00 | 0.00 | 42 | 1014.7 |
| 20260507044557 | 56 | 309 | 0.0 | 0.0 | 0.00 | 0.00 | 0.00 | 41 | 1014.5 |
| 20260507043100 | 57 | 310 | 0.0 | 0.0 | 0.00 | 0.00 | 0.00 | 40 | 1014.5 |
| 20260507041555 | 58 | 310 | 0.0 | 0.0 | 0.00 | 0.00 | 0.00 | 38 | 1014.4 |
| 20260507040054 | 58 | 292 | 0.0 | 0.0 | 0.00 | 0.00 | 0.00 | 37 | 1014.2 |
| 20260507034559 | 59 | 295 | 0.0 | 0.0 | 0.00 | 0.00 | 0.00 | 37 | 1014.1 |
| 20260507033053 | 60 | 271 | 0.0 | 0.0 | 0.00 | 0.00 | 0.00 | 35 | 1013.8 |
| 20260507031552 | 61 | 304 | 0.0 | 0.0 | 0.00 | 0.00 | 0.00 | 34 | 1013.6 |
| 20260507030052 | 63 | 302 | 0.0 | 0.0 | 0.00 | 0.00 | 0.00 | 33 | 1013.2 |
| 20260507024558 | 64 | 294 | 0.0 | 0.0 | 0.00 | 0.00 | 0.00 | 32 | 1012.9 |
| 20260507023050 | 65 | 283 | 0.0 | 0.0 | 0.00 | 0.00 | 0.00 | 31 | 1012.8 |
| 20260507021551 | 66 | 261 | 0.0 | 0.0 | 0.00 | 0.00 | 0.00 | 29 | 1012.5 |
| 20260507020053 | 67 | 241 | 0.0 | 0.0 | 0.00 | 0.00 | 0.00 | 28 | 1012.4 |
| 20260507014550 | 68 | 285 | 0.0 | 0.0 | 0.00 | 0.00 | 0.00 | 27 | 1012.3 |
| 20260507013047 | 69 | 237 | 0.0 | 0.0 | 0.00 | 0.00 | 0.00 | 26 | 1012.2 |
| 20260507011549 | 70 | 211 | 0.0 | 0.0 | 0.00 | 0.00 | 0.00 | 26 | 1012.1 |
| 20260507010104 | 71 | 297 | 0.0 | 0.0 | 0.00 | 0.00 | 0.00 | 24 | 1012.1 |
| 20260507004545 | 72 | 5 | 0.0 | 0.0 | 0.00 | 0.00 | 0.00 | 24 | 1012.0 |
| 20260507003044 | 72 | 319 | 0.0 | 0.0 | 0.00 | 0.00 | 0.00 | 24 | 1011.9 |
| 20260507001551 | 73 | 212 | 0.0 | 0.0 | 0.00 | 0.00 | 0.00 | 23 | 1011.9 |
| 20260507000041 | 72 | 170 | 0.0 | 0.0 | 0.00 | 0.00 | 0.00 | 24 | 1011.7 |
| 20260506234539 | 71 | 298 | 0.0 | 0.0 | 0.00 | 0.00 | 0.00 | 25 | 1011.8 |
| 20260506233038 | 71 | 269 | 0.0 | 0.0 | 0.00 | 0.00 | 0.00 | 25 | 1011.9 |
| 20260506231538 | 71 | 233 | 0.0 | 0.0 | 0.00 | 0.00 | 0.00 | 25 | 1012.0 |
| 20260506230042 | 72 | 325 | 0.0 | 0.0 | 0.00 | 0.00 | 0.00 | 24 | 1012.1 |
| 20260506224535 | 71 | 245 | 0.0 | 0.0 | 0.00 | 0.00 | 0.00 | 24 | 1012.4 |
| 20260506223036 | 72 | 185 | 0.0 | 0.0 | 0.00 | 0.00 | 0.00 | 25 | 1012.5 |
| 20260506221542 | 72 | 244 | 0.0 | 0.0 | 0.00 | 0.00 | 0.00 | 25 | 1012.7 |
| 20260506220040 | 71 | 219 | 0.0 | 0.0 | 0.00 | 0.00 | 0.00 | 25 | 1012.7 |
| 20260506214532 | 71 | 254 | 0.0 | 0.0 | 0.00 | 0.00 | 0.00 | 25 | 1012.9 |
| 20260506213032 | 71 | 260 | 0.0 | 0.0 | 0.00 | 0.00 | 0.00 | 24 | 1013.4 |
| 20260506211534 | 71 | 237 | 0.0 | 0.0 | 0.00 | 0.00 | 0.00 | 26 | 1013.6 |
| 20260506210030 | 70 | 84 | 0.0 | 0.0 | 0.00 | 0.00 | 0.00 | 26 | 1014.0 |
| 20260506204530 | 70 | 242 | 0.0 | 0.0 | 0.00 | 0.00 | 0.00 | 25 | 1014.2 |
| 20260506203028 | 71 | 301 | 0.0 | 0.0 | 0.00 | 0.00 | 0.00 | 27 | 1014.3 |
| 20260506201528 | 70 | 347 | 0.0 | 2.6 | 0.00 | 0.00 | 0.00 | 27 | 1014.3 |
| 20260506200022 | 69 | 337 | 0.0 | 3.5 | 0.00 | 0.00 | 0.00 | 28 | 1014.4 |
| 20260506194522 | 69 | 313 | 0.0 | 4.3 | 0.00 | 0.00 | 0.00 | 29 | 1014.7 |
| 20260506193019 | 68 | 331 | 0.0 | 0.0 | 0.00 | 0.00 | 0.00 | 29 | 1014.7 |
| 20260506191515 | 67 | 194 | 0.0 | 0.0 | 0.00 | 0.00 | 0.00 | 30 | 1015.0 |
| 20260506190013 | 67 | 263 | 0.0 | 0.0 | 0.00 | 0.00 | 0.00 | 31 | 1015.2 |
| 20260506184520 | 65 | 96 | 0.0 | 0.0 | 0.00 | 0.00 | 0.00 | 31 | 1015.3 |
| 20260506183008 | 64 | 339 | 0.0 | 0.0 | 0.00 | 0.00 | 0.00 | 32 | 1015.4 |
| 20260506181506 | 64 | 231 | 0.0 | 0.0 | 0.00 | 0.00 | 0.00 | 33 | 1015.6 |
| 20260506180006 | 63 | 350 | 0.0 | 0.0 | 0.00 | 0.01 | 0.00 | 33 | 1015.8 |
| 20260506174502 | 62 | 311 | 0.0 | 0.0 | 0.00 | 0.01 | 0.00 | 34 | 1015.8 |
| 20260506173002 | 63 | 279 | 0.0 | 0.0 | 0.00 | 0.01 | 0.00 | 36 | 1015.8 |
| 20260506171600 | 61 | 314 | 0.0 | 0.0 | 0.00 | 0.01 | 0.00 | 36 | 1015.9 |
| 20260506170054 | 61 | 229 | 0.0 | 0.0 | 0.00 | 0.02 | 0.00 | 38 | 1015.8 |
| 20260506164553 | 60 | 199 | 0.0 | 0.0 | 0.00 | 0.02 | 0.00 | 39 | 1015.8 |
| 20260506163054 | 59 | 269 | 0.0 | 0.0 | 0.00 | 0.02 | 0.00 | 38 | 1015.7 |
| 20260506161548 | 58 | 303 | 0.0 | 0.0 | 0.00 | 0.02 | 0.00 | 39 | 1015.7 |
| 20260506160143 | 56 | 326 | 0.0 | 0.0 | 0.00 | 0.07 | 0.00 | 46 | 1015.7 |
| 20260506154539 | 54 | 317 | 0.0 | 0.0 | 0.00 | 0.07 | 0.00 | 48 | 1015.8 |
| 20260506153042 | 53 | 161 | 0.0 | 0.0 | 0.00 | 0.07 | 0.00 | 49 | 1015.8 |
| 20260506151531 | 52 | 275 | 0.0 | 0.0 | 0.00 | 0.07 | 0.00 | 51 | 1015.7 |
| 20260506150027 | 51 | 234 | 0.0 | 0.0 | 0.00 | 0.07 | 0.00 | 54 | 1015.8 |
| 20260506144537 | 50 | 265 | 0.0 | 0.0 | 0.00 | 0.07 | 0.00 | 57 | 1015.6 |
| 20260506143020 | 48 | 266 | 0.0 | 0.0 | 0.00 | 0.07 | 0.00 | 61 | 1015.6 |
| 20260506141515 | 46 | 265 | 0.0 | 0.0 | 0.00 | 0.07 | 0.00 | 67 | 1015.7 |
| 20260506140010 | 42 | 264 | 0.0 | 0.0 | 0.00 | 0.07 | 0.00 | 76 | 1015.6 |
| 20260506134509 | 40 | 265 | 0.0 | 0.0 | 0.00 | 0.07 | 0.00 | 79 | 1015.3 |
| 20260506133007 | 39 | 258 | 0.0 | 0.0 | 0.00 | 0.07 | 0.00 | 79 | 1015.3 |
| 20260506131506 | 38 | 265 | 0.0 | 0.0 | 0.00 | 0.07 | 0.00 | 79 | 1015.1 |
| 20260506130003 | 38 | 267 | 0.0 | 0.0 | 0.00 | 0.07 | 0.00 | 78 | 1014.8 |
| 20260506124600 | 38 | 268 | 0.0 | 0.0 | 0.00 | 0.07 | 0.00 | 77 | 1014.5 |
| 20260506123101 | 38 | 268 | 0.0 | 0.0 | 0.00 | 0.07 | 0.00 | 77 | 1014.3 |
| 20260506121559 | 38 | 268 | 0.0 | 0.0 | 0.00 | 0.07 | 0.00 | 77 | 1014.1 |
| 20260506120100 | 38 | 268 | 0.0 | 0.0 | 0.00 | 0.07 | 0.00 | 76 | 1013.9 |
| 20260506114552 | 38 | 268 | 0.0 | 0.0 | 0.00 | 0.07 | 0.00 | 75 | 1013.9 |
| 20260506113053 | 39 | 267 | 0.0 | 0.0 | 0.00 | 0.07 | 0.00 | 75 | 1013.9 |
| 20260506111548 | 39 | 267 | 0.0 | 0.0 | 0.00 | 0.07 | 0.00 | 74 | 1013.8 |
| 20260506110046 | 39 | 268 | 0.0 | 0.0 | 0.00 | 0.07 | 0.00 | 74 | 1013.5 |
| 20260506104554 | 39 | 267 | 0.0 | 0.0 | 0.00 | 0.07 | 0.00 | 74 | 1013.4 |
| 20260506103042 | 39 | 267 | 0.0 | 0.0 | 0.00 | 0.07 | 0.00 | 74 | 1013.2 |
| 20260506101541 | 39 | 267 | 0.0 | 0.0 | 0.00 | 0.07 | 0.00 | 73 | 1013.1 |